[Date Prev][Date Next][Thread Prev][Thread Next][Date Index][Thread Index]

[jamsat-news:1252] jas2info #182



========================   最新情報   ==============================

        Last updated :Wed.5-Apr.-2000 20:30 (JST) #182

====================================================================
   
  1)アマチュア通信衛星情報 FOシリーズの軌道要素、テレメトリ、
   QSOの状況等をまとめてみました.
   
   FO−29の4月5日(水)のテレメトリはJARLのホームページの
  運用予定のとうり11:51(JST)のパスではディジタル系運用になって
  おりました.パケット信号でテレメトリを11:51〜12:01(JST)に
  受信できました.
  現在まで、当局で取得したデータの1部を掲載しておきます.

 ** AS17942P  05Apr2000

 8J1JCS>BEACON [04/05/00  13:41:47]:
 JAS-2    '97/04/05 04:31:25
 9C 03 03 08 00 32 00 00 00 00
 00 00 3E 16 4A 76 4E 93 90 9E
 AA 52 A8 01 CC B5 B7 B9 B7 B6

 8J1JCS>BEACON [04/05/00  13:41:48]:95 02 00 09 00 00 E2 40 00 00
 12 78 CA 59 38 9A 9D 86 7C 82
 00 00 00 AC 89 B3 F7 00 00 00

 8J1JCS>BEACON [04/05/00  13:41:49]:
 User not connect.

 8J1JCS>BEACON [04/05/00  13:41:52]:    K7XQ        29 Hello from K7XQ

 8J1JCS>BEACON [04/05/00  13:43:47]:
 JAS-2    '97/04/05 04:33:25
 9C 03 63 08 00 32 00 00 00 00
 00 00 3E 16 86 79 60 93 91 B0
 AA 52 A8 01 E3 B5 B7 B8 B7 B6

 8J1JCS>BEACON [04/05/00  13:43:48]:95 02 00 09 00 00 E2 40 00 00
 AC 77 C7 69 3B 98 9C 86 7D 83
 00 00 00 AC 89 B3 F7 00 00 00

 8J1JCS>BEACON [04/05/00  13:43:50]:
 User not connect.

 8J1JCS>BEACON [04/05/00  13:45:47]:
 JAS-2    '97/04/05 04:35:25
 9C 03 03 08 00 32 00 00 00 00
 00 00 3E 16 C2 77 4D 95 92 9F
 AA 52 A8 02 B6 B5 B7 B7 B6 B5

 8J1JCS>BEACON [04/05/00  13:45:48]:95 02 00 09 00 00 E2 40 00 00
 70 77 D0 6C 3E 98 9B 87 7E 84
 00 00 00 AC 89 B3 F7 00 00 00

 8J1JCS>BEACON [04/05/00  13:45:50]:
 User not connect.

 8J1JCS>BEACON [04/05/00  13:45:51]:
 Total    2 File(s)

 No.  Date  UTC    To    From   Size   Subject
 0002 03/10 07:55 ALL    K7XQ        69
 0001 03/07 08:52 ALL
 8J1JCS>BEACON [04/05/00  13:45:52]:    K7XQ        29 Hello from K7XQ

  ** AS17941P  05Apr2000

 8J1JCS>BEACON [04/05/00  11:51:40]:
 JAS-2    '97/04/05 02:41:25
 9C 03 03 08 00 32 00 00 00 00
 00 00 3E 09 66 7A 4C 94 91 9F
 AA 51 A8 02 CC B5 B8 BB B8 B5

 8J1JCS>BEACON [04/05/00  11:51:41]:95 02 00 09 00 00 E1 40 00 00
 E8 85 CE 38 77 9C A1 7F 7B 7B
 00 00 00 AE 84 B3 F7 00 00 00

 8J1JCS>BEACON [04/05/00  11:51:42]:
 User not connect

 8J1JCS>BEACON [04/05/00  11:51:43]:
 Total    2 File(s)
  No.  Date  UTC    To    From   Size   Subject
 0002 03/10 07:55 ALL    K7XQ        69 
 0001 03/07 08:52 ALL
 8J1JCS>BEACON [04/05/00  11:51:44]:    K7XQ        29 Hello from K7XQ
 8J1JCS>BEACON [04/05/00  11:53:46]:

 JAS-2    '97/04/05 02:43:25
 9C 03 63 08 00 32 00 00 00 00
 00 00 3E 09 A2 7D 60 93 91 B0
 AA 52 A8 02 BF B5 B8 BB B8 B5

 8J1JCS>BEACON [04/05/00  11:53:47]:95 02 00 09 00 00 E1 40 00 00
 21 81 D2 4F 6E A1 A6 80 7B 7C
 00 00 00 AE 85 B3 F7 00 00 00

 8J1JCS>BEACON [04/05/00  11:53:48]:
 User not connect.

 8J1JCS>BEACON [04/05/00  11:53:49]:
 Total    2 File(s)
  No.  Date  UTC    To    From   Size   Subject
 0002 03/10 07:55 ALL    K7XQ        69 
 0001 03/07 08:52 ALL
 8J1JCS>BEACON [04/05/00  11:53:50]:    K7XQ        29 Hello from K7XQ

 8J1JCS>BEACON [04/05/00  11:55:46]:
 JAS-2    '97/04/05 02:45:25
 9C 03 03 08 00 32 00 00 00 00
 00 00 3E 09 DE 7F 48 95 92 9F
 AA 52 A8 02 B6 B5 B7 BA B7 B5

 8J1JCS>BEACON [04/05/00  11:55:47]:95 02 00 09 00 00 E1 40 00 00
 32 7F D6 61 67 A3 A7 81 7C 7D
 00 00 00 AD 86 B3 F7 00 00 00

 8J1JCS>BEACON [04/05/00  11:55:50]:    K7XQ        29 Hello from K7XQ
 8J1JCS>BEACON [04/05/00  12:01:46]:
 JAS-2    '97/04/05 02:51:25
 9C 03 03 08 00 32 00 00 00 00
 00 00 3E 0A 92 65 59 93 90 9E
 AA 52 A8 02 CC B5 B7 B9 B6 B4

 8J1JCS>BEACON [04/05/00  12:01:47]:95 02 00 09 00 00 E1 40 00 00
 BF 7B EC 68 25 A0 A5 84 7E 80
 00 00 00 AB 88 B3 F7 00 00 00

 8J1JCS>BEACON [04/05/00  12:01:48]:
 User not connect.

 8J1JCS>BEACON [04/05/00  12:01:49]:
 Total    2 File(s)
  No.  Date  UTC    To    From   Size   Subject
 0002 03/10 07:55 ALL    K7XQ        69 
 0001 03/07 08:52 ALL
 8J1JCS>BEACON [04/05/00  12:01:50]:    K7XQ        29 Hello from K7XQ

  ** AS17914p  03APR2000

 8J1JCS>BEACON [04/03/00  12:06:37]:
 JAS-2    '97/04/03 02:57:25
 9C 03 03 08 00 32 00 00 00 00
 00 00 3C B9 C6 72 4F 94 91 9F
 AA 52 A8 01 CE B8 BB B7 B4 B9

 8J1JCS>BEACON [04/03/00  12:06:38]:95 02 00 09 00 00 CA 40 00 00
 7A 88 5C 4F 51 9F A4 87 82 85
 00 00 00 A7 89 B3 F7 00 00 00

 8J1JCS>BEACON [04/03/00  12:06:39]:
 User not connect.
 8J1JCS>BEACON [04/03/00  12:06:41]:
 Total    2 File(s)
  No.  Date  UTC    To    From   Size   Subject
 0002 03/10 07:55 ALL    K7XQ        69 
 0001 03/07 08:52 ALL
 8J1JCS>BEACON [04/03/00  12:06:42]:    K7XQ        29 Hello from K7XQ

 8J1JCS>BEACON [04/03/00  12:09:02]:
 JAS-2    '97/04/03 02:59:25
 9C 03 03 08 00 32 00 00 00 00
 00 00 3C BA 02 72 50 95 92 A0
 AA 52 A8 01 D0 B8 BB B7 B4 B9

 8J1JCS>BEACON [04/03/00  12:09:03]:95 02 00 09 00 00 CA 40 00 00
 22 85 5C 4F 5E 9F A4 87 82 85
 00 00 00 A7 89 B3 F7 00 00 00

 8J1JCS>BEACON [04/03/00  12:09:04]:
 User not connect.
 8J1JCS>BEACON [04/03/00  12:09:06]:
 Total    2 File(s)
  No.  Date  UTC    To    From   Size   Subject
 0002 03/10 07:55 ALL    K7XQ        69
 0001 03/07 08:52 ALL
 8J1JCS>BEACON [04/03/00  12:09:07]:    K7XQ        29 Hello from K7XQ

 ------------------------ FO-29の軌道要素 ------------------------------        
 
  ■ 軌道要素1:「jamsat−keps:980」より              
            SB KEPS @ AMSAT  $ORB00091.N
            2Line Orbital Elements 00091.AMSAT

 HR AMSAT ORBITAL ELEMENTS FOR AMATEUR SATELLITES IN NASA FORMAT
 FROM WA5QGD FORT WORTH,TX March 31, 2000
 SEND SUBSCRIBE/UNSUBSCRIBE TO majordomo@amsat.org ONLY
 BID: ORB00091.N

  DECODE 2-LINE ELSETS WITH THE FOLLOWING KEY:
  1 AAAAAU 00  0  0 BBBBB.BBBBBBBB  .CCCCCCCC  00000-0  00000-0 0  DDDZ
  2 AAAAA EEE.EEEE FFF.FFFF GGGGGGG HHH.HHHH III.IIII JJ.JJJJJJJJKKKKKZ
  KEY: A-CATALOGNUM B-EPOCHTIME C-DECAY D-ELSETNUM E-INCLINATION F-RAAN
  G-ECCENTRICITY H-ARGPERIGEE I-MNANOM J-MNMOTION K-ORBITNUM Z-CHECKSUM

  TO ALL RADIO AMATEURS BT

 FO-29
 1 24278U 96046B   00089.75639289  .00000119  00000-0  15477-3 0 03200
 2 24278 098.5893 008.0352 0352021 072.5019 291.4256 13.52706561178553

 ■ 軌道要素2:「jamsat−keps:979」より                         
         SB KEPS @ AMSAT  $ORB00091.O
         Orbital Elements  00091.OSCAR

 HR AMSAT ORBITAL ELEMENTS FOR OSCAR SATELLITES
 FROM WA5QGD FORT WORTH,TX March 31, 2000
 SEND SUBSCRIBE/UNSUBSCRIBE TO majordomo@amsat.org ONLY
 BID: ORB00091.O
  TO ALL RADIO AMATEURS BT

  Satellite: FO-29
 Catalog number: 24278
 Epoch time:      00089.75639289
 Element set:    0320
 Inclination:      098.5893 deg
 RA of node:       008.0352 deg
 Eccentricity:    0.0352021
 Arg of perigee:   072.5019 deg
 Mean anomaly:     291.4256 deg
 Mean motion:   13.52706561 rev/day
 Decay rate:       1.19e-06 rev/day^2
 Epoch rev:           17855
 Checksum:              314
-------------------  FO-29(JAS-2)のテレメトリに関する情報  ----------------------
 
 2)上記の4月5日(水)のテレメトリの最後の行の
  分析結果です。

 **AS17942P  05Apr2000

 8J1JCS>BEACON [04/05/00  13:45:47]:
 JAS-2    '97/04/05 04:35:25
 9C 03 03 08 00 32 00 00 00 00
 00 00 3E 16 C2 77 4D 95 92 9F
 AA 52 A8 02 B6 B5 B7 B7 B6 B5

 8J1JCS>BEACON [04/05/00  13:45:48]:95 02 00 09 00 00 E2 40 00 00
 70 77 D0 6C 3E 98 9B 87 7E 84
 00 00 00 AC 89 B3 F7 00 00 00
 
 テレメトリ  	内   容	    	換算値	単 位 
 
 F1-12	磁気センサ-X軸	=   101960.8[nT]
 F1-13	磁気センサ-Z軸	=    52941.2[nT]
 F0-15	太陽電池発生電流 =     1166.7[mA]
 F0-16	B充放電電流	=      490.8[mA]
 F0-17	B端子電圧	=	16.0[V]
 F0-18	B中間端子電圧	=	 7.0[V]
 F0-19	バス電圧 	=	15.6[V]
 F0-20	+5安定化電圧	=	 5.1[V]
 F0-21	-5V安定化電圧	=	-4.9[V]
 F0-22	+10V安定化電圧=	10.1[V]
 F0-23	JTA出力電力	=      -85.1[mW]
 F0-24	JTD出力電力	=     1049.9[mW]
 F0-25	Bセル温度	=	11.6[℃]
 F0-26	構体温度-1	=	10.8[℃]
 F0-27	構体温度-2	=	10.8[℃]
 F0-28	構体温度-3	=	11.2[℃]
 F0-29	構体温度-4	=	11.6[℃]
 F1-18	太陽電池パネル温度-1=    2.1[℃]
 F1-19	太陽電池パネル温度-2=   15.7[℃]
 F1-24	太陽電池パネル温度-3=   27.0[℃]
 F1-23	JTD  Tr温度     =   15.1[℃]
  
  * OSはWindows 2000,Office 2000 にて計算処理.

  
 ==================================================================================

  4)JARL のホームページに運用予定が記載されていましたのでご紹介します.
       ( http://www.jarl.or.jp/Japanese/3_Fuji/new/uy.htm )

        ■ ふじ3号/FOー29/JAS-2 ■  
   
     *** 運用予定について ***   

 04月03日 〜 04月06日 デジタル系1200bpsメールボックス運用 
 04月07日 〜 04月16日 アナログ系運用 
 04月17日 〜 04月20日 デジタル系1200bpsメールボックス運用 
 04月21日 〜 05月07日 アナログ系運用 

 *なお,運用予定は都合により変更することがありますのでご了承願います。

 照会先 : lab@jarl.or.jp

 最新の情報はテレホンサービス(03−3942−1000)をお聞きください。  
 以後の運用につきましては4月下旬にお知らせいたします。
 
-----------------------    FO−20(JAS-1b)道要素   -------------------------
  5)
  ■ 軌道要素1 :出典はFO-29「ふじ3号」に同じ.
  
  FO-20
 1 20480U 90013C   00089.93445743  .00000059  00000-0  21159-3 0 02306
 2 20480 099.0384 235.2208 0539859 234.7400 120.2048 12.83266696475114

  ■ 軌道要素2 :出典はFO−29「ふじ3号」に同じ.
               
  Satellite: FO-20
 Catalog number: 20480
 Epoch time:      00089.93445743
 Element set:    0230
 Inclination:      099.0384 deg
 RA of node:       235.2208 deg
 Eccentricity:    0.0539859
 Arg of perigee:   234.7400 deg
 Mean anomaly:     120.2048 deg
 Mean motion:   12.83266696 rev/day
 Decay rate:        5.9e-07 rev/day^2
 Epoch rev:           47511
 Checksum:              300

 --------------------------------------------------------------------------------
 6)         ■ ふじ2号/FO−20/JAS-1b ■      
            
          「ふじ2号」 現況                                                                                  
             
   JAS-1b(ふじ2号)のCWテレメトリ信号に,1997年10月12日12時(JST)の
 日本上空通過時,3桁の数字が繰り返されるはずが3個の長音の繰り返しとなっているという
 異常が発見されました。この不具合は次の通過時からは回復していましたが13日15時20分の
 通過時に再び観測されました。現在はA0の送信が続いています。衛星のアナログ系中継モード
 動作は異常が無く,正常時のテレメトリ内容からは衛星の動作に異常は認められません。従って,
 直ちに衛星のミッションに影響することは無いと予想されますので,当面はアナログ系中継
 モードを継続します。衛星は既に打ち上げてから7年8ヶ月を経ておりますので,今後は監視を
 強化する予定です。アマチュア各位のレポートをお待ちします。
 -------------------------------------------------------------------------------- 
  1997年10月14日 00時35分 確認のテレメトリ音 151 KB (A0) 
  1997年10月14日 11時10分 確認のテレメトリ音 216 KB (異常キーイング) 

  以上 JARLのホ−ムページの http://www.jarl.or.jp/Japanese/3_Fuji/new/fuji.htm
                                           
   =============   JAS-2 (ふじ3号)と現在までの情報   ===========
  
  A.電話によるふじ3号の運用情報
      社団法人日本アマチュア連盟によるサービス
           TEL .   03− 3942 − 1000
  B.アマチュア無線FAXサービス
      JARLによるふじ3号の軌道情報(オービットカレンダー)
         FAX No.  03− 3233 −0055
  C.WWWブラウザで情報を簡単に見れる人のためにJAS−2
     ふじ3号の衛星としての運用されるまでの名前)の概要、打ち上げ
     までの状況、運用中における状況を説明したホームページを紹介し
     ておきます.
     社団法人日本アマチュア無線連盟(JARL)のホームページ

          http://www.jarl.or.jp/Japanese/3_Fuji/jasmenu.htm
 
     宇宙開発事業団(NASDA)ホームページ 
          http://www.nasda.go.jp/
         打上げ衛星 :地球観測プラットフォーム技術衛星(ADEOS) 
                       アマチュア衛星3号(JAS-2)
          http://yyy.tksc.nasda.go.jp/Home/Press/Press-j/jas-2_j.html        

  D.JAMSATによる軌道情報の活用
        JAMSATのホームページまたはjamsat−kepsの軌道要素より
      衛星の軌道情報を得る.
     JAMSATホームページ
               URL    http://www.jamsat.or.jp
       上記ホームページでは各地で行われるアマチュア通信衛星に関する
      ミューティングのお知らせや世界のアマチュア衛星に関する情報が
      満載されています.
 ========================================================================  
     JAMSATのメンバーのご協力によりJH6MME(高山 秀造)が
    執筆・編集を担当しております.ご指摘の意見、疑問やこのようにしたら
    というアイデアがありましたら小さなことでもかまいませんので気軽に下
    記アドレスまでご連絡ください.jamsat−newsからjas2
    infoへの転載をJH4PHW局坂井さんに担当して頂いております.  
                  E-mail : jh6mme@jamsat.or.jp : jh4phw@jamsat.or.jp
 ===============================   END  ===============================